Milwaukee Timmerman, WI

3:33 PM CDT on September 18, 2019 (GMT -0500)
Timmerman

Weather History for KMWC - August, 2019

Change the Weather History Date:

Tuesday, August 20, 2019

  Actual Average Record
Temperature  
Mean Temperature 72 °F -  
Max Temperature 80 °F 81 °F 97 °F (1955)
Min Temperature 64 °F 60 °F 42 °F (1950)
Cooling Degree Days 7    
Growing Degree Days 22 (Base 50)    
Moisture  
Dew Point 63 °F    
Average Humidity 79    
Maximum Humidity 94    
Minimum Humidity 54    
Precipitation  
Precipitation 0.00 in - - ()
Sea Level Pressure  
Sea Level Pressure 30.00 in    
Wind  
Wind Speed 2 mph (SSW)    
Max Wind Speed 8 mph    
Max Gust Speed -    
Visibility 7 miles    
Events Fog    
Averages and records for this station are not official NWS values.
T = Trace of Precipitation, MM = Missing Value Source: NWS Daily Summary

Daily Weather History Graph

Daily Weather History Graph

Search for Another Location

Airport or City:

Astronomy

Aug. 20, 2019 Rise Set
Actual Time 6:03 AM CDT 7:47 PM CDT
Civil Twilight 5:32 AM CDT 8:17 PM CDT
Nautical Twilight 4:55 AM CDT 8:54 PM CDT
Astronomical Twilight 4:16 AM CDT 9:33 PM CDT
Moon 10:28 PM CDT (8/20) 10:47 AM CDT (8/20)
Length of Visible Light 14h 44m
Length of Day
13h 44m
Waning Gibbous, 77% of the Moon is Illuminated
Aug 20
Waning Gibbous
Aug 23
Last Quarter
Aug 30
New
Sep 5
First Quarter
Sep 13
Full

Hourly Weather History & Observations

Time (CDT) Temp. Heat Index Dew Point Humidity Pressure Visibility Wind Dir Wind Speed Gust Speed Precip Events Conditions
12:15 AM 64.4 °F - 60.8 °F 88% 30.03 in 10.0 mi North 3.5 mph - N/A   Clear
12:35 AM 64.4 °F - 60.8 °F 88% 30.04 in 10.0 mi NNW 3.5 mph - N/A   Clear
12:55 AM 66.2 °F - 62.6 °F 88% 30.04 in 10.0 mi Calm Calm - N/A   Clear
1:15 AM 64.4 °F - 60.8 °F 88% 30.04 in 10.0 mi Calm Calm - N/A   Clear
1:35 AM 64.4 °F - 60.8 °F 88% 30.05 in 10.0 mi Calm Calm - N/A   Clear
1:55 AM 64.4 °F - 60.8 °F 88% 30.05 in 10.0 mi Calm Calm - N/A   Mostly Cloudy
2:15 AM 66.2 °F - 62.6 °F 88% 30.05 in 10.0 mi Calm Calm - N/A   Overcast
2:35 AM 64.4 °F - 60.8 °F 88% 30.05 in 10.0 mi Calm Calm - N/A   Scattered Clouds
2:55 AM 66.2 °F - 62.6 °F 88% 30.05 in 10.0 mi Calm Calm - N/A   Scattered Clouds
3:15 AM 66.2 °F - 62.6 °F 88% 30.05 in 1.2 mi Calm Calm - N/A   Overcast
3:35 AM 66.2 °F - 62.6 °F 88% 30.06 in 0.2 mi Calm Calm - N/A Fog Fog
3:55 AM 66.2 °F - 62.6 °F 88% 30.06 in 0.2 mi Calm Calm - N/A Fog Fog
4:15 AM 66.2 °F - 62.6 °F 88% 30.06 in 4.0 mi Calm Calm - N/A   Overcast
4:35 AM 64.4 °F - 62.6 °F 94% 30.05 in 1.0 mi Calm Calm - N/A   Overcast
4:55 AM 66.2 °F - 62.6 °F 88% 30.03 in 0.5 mi Calm Calm - N/A Fog Fog
5:15 AM 66.2 °F - 62.6 °F 88% 30.01 in 0.5 mi Calm Calm - N/A Fog Fog
5:35 AM 68.0 °F - 62.6 °F 83% 30.00 in 1.0 mi Calm Calm - N/A   Overcast
5:55 AM 68.0 °F - 62.6 °F 83% 30.01 in 0.5 mi Calm Calm - N/A Fog Fog
6:15 AM 68.0 °F - 64.4 °F 88% 29.99 in 0.8 mi Calm Calm - N/A   Overcast
6:35 AM 68.0 °F - 64.4 °F 88% 30.03 in 0.5 mi Calm Calm - N/A Fog Fog
6:55 AM 68.0 °F - 64.4 °F 88% 30.02 in 1.0 mi Calm Calm - N/A   Overcast
7:00 AM 69.8 °F - 66.2 °F 88% 30.02 in 1.0 mi Calm Calm - N/A   Overcast
7:15 AM 68.0 °F - 64.4 °F 88% 30.01 in 0.8 mi East 3.5 mph - N/A   Overcast
7:45 AM 69.8 °F - 66.2 °F 88% 30.01 in 1.0 mi SE 4.6 mph - N/A   Overcast
8:20 AM 71.6 °F - 66.2 °F 83% 30.03 in 7.0 mi Calm Calm - N/A   Scattered Clouds
8:45 AM 71.6 °F - 66.2 °F 83% 30.02 in 7.0 mi Calm Calm - N/A   Scattered Clouds
9:45 AM 71.6 °F - 64.4 °F 78% 30.01 in 10.0 mi Calm Calm - N/A   Mostly Cloudy
10:45 AM 75.2 °F - 64.4 °F 69% 29.99 in 10.0 mi Calm Calm - N/A   Clear
11:45 AM 77.0 °F - 62.6 °F 61% 30.01 in 10.0 mi SE 6.9 mph - N/A   Clear
12:45 PM 77.0 °F - 62.6 °F 61% 29.98 in 10.0 mi Calm Calm - N/A   Clear
1:45 PM 78.8 °F - 62.6 °F 57% 30.01 in 10.0 mi Calm Calm - N/A   Scattered Clouds
2:45 PM 75.2 °F - 64.4 °F 69% 29.99 in 10.0 mi SE 3.5 mph - N/A   Scattered Clouds
3:45 PM 75.2 °F - 66.2 °F 73% 29.98 in 10.0 mi SE 6.9 mph - N/A   Mostly Cloudy
4:17 PM 78.8 °F - 64.4 °F 61% 29.95 in 10.0 mi WSW 8.1 mph - N/A   Scattered Clouds
4:45 PM 80.6 °F 81.8 °F 62.6 °F 54% 29.93 in 10.0 mi WSW 5.8 mph - N/A   Clear
5:45 PM 80.6 °F 81.8 °F 62.6 °F 54% 29.91 in 10.0 mi SSE 6.9 mph - N/A   Clear
6:45 PM 78.8 °F - 60.8 °F 54% 29.92 in 10.0 mi WSW 3.5 mph - N/A   Clear
7:45 PM 75.2 °F - 62.6 °F 65% 29.92 in 10.0 mi SE 4.6 mph - N/A   Clear
8:45 PM 73.4 °F - 62.6 °F 69% 29.94 in 10.0 mi West 3.5 mph - N/A   Clear
8:55 PM 71.6 °F - 62.6 °F 73% 29.95 in 10.0 mi Calm Calm - N/A   Clear
9:15 PM 71.6 °F - 62.6 °F 73% 29.95 in 10.0 mi West 4.6 mph - N/A   Clear
9:35 PM 69.8 °F - 60.8 °F 73% 29.95 in 10.0 mi Calm Calm - N/A   Clear
9:55 PM 69.8 °F - 62.6 °F 78% 29.95 in 10.0 mi WSW 3.5 mph - N/A   Clear
10:15 PM 68.0 °F - 62.6 °F 83% 29.96 in 10.0 mi SSW 3.5 mph - N/A   Clear
10:35 PM 68.0 °F - 62.6 °F 83% 29.97 in 10.0 mi SSW 4.6 mph - N/A   Clear
10:55 PM 68.0 °F - 60.8 °F 78% 29.97 in 10.0 mi SW 4.6 mph - N/A   Clear
11:15 PM 68.0 °F - 62.6 °F 83% 29.98 in 10.0 mi SW 5.8 mph - N/A   Clear
11:35 PM 68.0 °F - 60.8 °F 78% 29.98 in 10.0 mi SW 5.8 mph - N/A   Clear
11:55 PM 68.0 °F - 60.8 °F 78% 29.97 in 10.0 mi SW 4.6 mph - N/A   Clear